2021-059CH (48958 NORAD) Tracking and Keplerian Element Data

This shows tracking and keplerian element data for the satellite.

Feedback or suggestion? Click here.




ElementValue
Catalog48958
Name2021-059CH
Epoch Orbit515
Epoch Day210.87041649
Epoch Year2021
RAAN339.271
Inclination97.5159
Eccentricity0.0018479
Argument of Perigee132.29
Mean Anonmoly227.9901
Mean Motion15.13937525
Decay Rate7.65E-06
L11 48958U 21059CH 21210.87041649 .00000765 00000-0 45699-4 0 9991
L22 48958 97.5159 339.2710 0018479 132.2900 227.9901 15.13937525 5155

Live tracking and technical data element details for 2021-059CH (NORAD 48958). 2021-059CH can be tracked NOW for your location showing map with azimuth and elevation plus other details from your city location.

Track the satellite on the map from your city or location and see movement details for azimuth, elevation, latitude, longitude, range, height, and movement on the map or in text.







IsCatalogInMostPopularTable: catalog: 48958, numindb: 1
Update: records affected: 1



GetName: 48958 2021-059CH

Hit Count: updated at: Sat, 31 Jul 2021 15:11:40 GMT